�������C�����ː����j�^�v���󋵏��
Date,Time,Cs137(Bq/L),Cs134(Bq/L),�S��(Bq/L)
2019/01/22,00:00,0.29,ND,15
2019/01/22,00:10,0.29,ND,15
2019/01/22,00:20,0.27,ND,15
2019/01/22,00:30,0.22,ND,15
2019/01/22,00:40,0.26,ND,22
2019/01/22,00:50,0.27,ND,26
2019/01/22,01:00,0.27,ND,24
2019/01/22,01:10,0.23,ND,24
2019/01/22,01:20,0.29,ND,21
2019/01/22,01:30,0.29,ND,20
2019/01/22,01:40,0.28,ND,19
2019/01/22,01:50,0.26,ND,16
2019/01/22,02:00,0.26,ND,16
2019/01/22,02:10,0.17,ND,16
2019/01/22,02:20,0.24,ND,18
2019/01/22,02:30,0.26,ND,19
2019/01/22,02:40,0.29,ND,18
2019/01/22,02:50,0.30,ND,19
2019/01/22,03:00,0.31,ND,21
2019/01/22,03:10,0.32,ND,19
2019/01/22,03:20,0.30,ND,18
2019/01/22,03:30,0.28,ND,18
2019/01/22,03:40,0.26,ND,17
2019/01/22,03:50,0.28,ND,18
2019/01/22,04:00,0.26,ND,20
2019/01/22,04:10,0.25,ND,19
2019/01/22,04:20,0.18,ND,19
2019/01/22,04:30,0.27,ND,19
2019/01/22,04:40,0.19,ND,21
2019/01/22,04:50,0.20,ND,18
2019/01/22,05:00,0.19,ND,16
2019/01/22,05:10,0.19,ND,18
2019/01/22,05:20,0.18,ND,18
2019/01/22,05:30,0.25,ND,20
2019/01/22,05:40,0.27,ND,20
2019/01/22,05:50,0.22,ND,23
2019/01/22,06:00,0.26,ND,24
2019/01/22,06:10,0.27,ND,22
2019/01/22,06:20,0.28,ND,21
2019/01/22,06:30,0.29,ND,21
2019/01/22,06:40,0.26,ND,20
2019/01/22,06:50,0.25,ND,21
2019/01/22,07:00,0.28,ND,21
2019/01/22,07:10,0.29,ND,21
2019/01/22,07:20,0.24,ND,22
2019/01/22,07:30,0.26,ND,20
2019/01/22,07:40,0.26,ND,20
2019/01/22,07:50,0.26,ND,19
2019/01/22,08:00,0.28,ND,16
2019/01/22,08:10,0.27,ND,18
2019/01/22,08:20,0.25,ND,19
2019/01/22,08:30,0.24,ND,16
2019/01/22,08:40,0.25,ND,15
2019/01/22,08:50,0.25,ND,12
2019/01/22,09:00,0.27,ND,14
2019/01/22,09:10,0.29,ND,14
2019/01/22,09:20,0.30,ND,12
2019/01/22,09:30,0.33,ND,13
2019/01/22,09:40,0.33,ND,13
2019/01/22,09:50,0.32,ND,15
2019/01/22,10:00,0.32,ND,19
2019/01/22,10:10,0.33,ND,16
2019/01/22,10:20,0.32,ND,19
2019/01/22,10:30,0.31,ND,20
2019/01/22,10:40,0.29,ND,21
2019/01/22,10:50,0.31,ND,22
2019/01/22,11:00,0.30,ND,18
2019/01/22,11:10,0.29,ND,20
2019/01/22,11:20,0.29,ND,20
2019/01/22,11:30,0.30,ND,22
2019/01/22,11:40,0.32,ND,22
2019/01/22,11:50,0.33,ND,22
2019/01/22,12:00,0.29,ND,21
2019/01/22,12:10,0.27,ND,22
2019/01/22,12:20,0.28,ND,21
2019/01/22,12:30,0.26,ND,17
2019/01/22,12:40,0.26,ND,15
2019/01/22,12:50,0.26,ND,15
2019/01/22,13:00,0.25,ND,16
2019/01/22,13:10,0.28,ND,16
2019/01/22,13:20,0.32,ND,16
2019/01/22,13:30,0.32,ND,18
2019/01/22,13:40,0.33,ND,20
2019/01/22,13:50,0.33,ND,20
2019/01/22,14:00,0.33,ND,21
2019/01/22,14:10,0.32,ND,20
2019/01/22,14:20,0.32,ND,21
2019/01/22,14:30,0.31,ND,20
2019/01/22,14:40,0.29,ND,21
2019/01/22,14:50,0.30,ND,20
2019/01/22,15:00,0.30,ND,20
2019/01/22,15:10,0.30,ND,21
2019/01/22,15:20,0.29,ND,22
2019/01/22,15:30,0.25,ND,23
2019/01/22,15:40,0.25,ND,21
2019/01/22,15:50,0.23,ND,20
2019/01/22,16:00,0.21,ND,21
2019/01/22,16:10,0.21,ND,20
2019/01/22,16:20,0.22,ND,16
2019/01/22,16:30,0.23,ND,12
2019/01/22,16:40,0.23,ND,13
2019/01/22,16:50,0.24,ND,11
2019/01/22,17:00,0.29,ND,11
2019/01/22,17:10,0.24,ND,13
2019/01/22,17:20,0.23,ND,16
2019/01/22,17:30,0.23,ND,18
2019/01/22,17:40,0.24,ND,19
2019/01/22,17:50,0.23,ND,22
2019/01/22,18:00,0.23,ND,22
2019/01/22,18:10,0.27,ND,23
2019/01/22,18:20,0.23,ND,23
2019/01/22,18:30,0.23,ND,21
2019/01/22,18:40,0.22,ND,21
2019/01/22,18:50,0.22,ND,20
2019/01/22,19:00,0.23,ND,19
2019/01/22,19:10,0.25,ND,16
2019/01/22,19:20,0.26,ND,16
2019/01/22,19:30,0.30,ND,17
2019/01/22,19:40,0.29,ND,16
2019/01/22,19:50,0.32,ND,15
2019/01/22,20:00,0.31,ND,13
2019/01/22,20:10,0.30,ND,14
2019/01/22,20:20,0.31,ND,14
2019/01/22,20:30,0.33,ND,14
2019/01/22,20:40,0.36,ND,16
2019/01/22,20:50,0.35,ND,14
2019/01/22,21:00,0.37,ND,16
2019/01/22,21:10,0.41,ND,16
2019/01/22,21:20,0.42,ND,17
2019/01/22,21:30,0.43,ND,16
2019/01/22,21:40,0.42,ND,14
2019/01/22,21:50,0.42,ND,16
2019/01/22,22:00,0.42,ND,14
2019/01/22,22:10,0.41,ND,13
2019/01/22,22:20,0.41,ND,14
2019/01/22,22:30,0.40,ND,14
2019/01/22,22:40,0.41,ND,15
2019/01/22,22:50,0.42,ND,17
2019/01/22,23:00,0.38,ND,17
2019/01/22,23:10,0.43,ND,17
2019/01/22,23:20,0.42,ND,14
2019/01/22,23:30,0.41,ND,16
2019/01/22,23:40,0.41,ND,18
2019/01/22,23:50,0.39,ND,16
